User: anonymous   Login
Location: Lawrence
(38.9720°N, 95.2350°W)
Time: 17:02:48
(UTC-06:00)
Language:

JAS-1B - Orbit

View from above orbital plane
View from above orbital plane
View from above satellite
View from above satellite

Ground track
Ground track

The orbit data is extracted from the following two-line orbital elements,

1 20480U 90013C   17344.89318638 -.00000050 +00000-0 -36748-4 0  9991
2 20480 099.0737 085.1672 0540122 351.0669 008.1113 12.83417472304341
Epoch (UTC): 10 December 2017 21:26:11
Eccentricity: 0.0540122
inclination: 99.0737°
perigee height: 911 km
apogee height: 1744 km
right ascension of ascending node: 85.1672°
argument of perigee: 351.0669°
revolutions per day: 12.83417472
mean anomaly at epoch: 8.1113°
orbit number at epoch: 30434

The dashed part of the orbit path shows where the satellite is in the earth's shadow,  

DLR